Terug naar catalogus

SL-8 DEB

ActiefLEO
NORAD 21155·DEBRIS·🇷🇺 Russia

Gelanceerd Feb 12, 1991 vanaf Plesetsk Cosmodrome

Loading…

Volgende Passages (komende 24 uur)

TLE

VersSource: Space-Track

Epoch: Sep 14, 2026, 05:26 UTC

1 21155U 91009S   26257.22699030  .00000013  00000-0  24069-3 0  9994
2 21155  73.9271 341.8596 0144428 277.8847 108.7320 12.30740513598769

Volg SL-8 DEB in realtime met AllMySat

Download on the App Store